Precipitable_Water
1.62 1.76 1.74 1.66 1.57 1.42 1.30 1.27 1.22 1.16 1.08 0.96 0.89 0.82 0.78 0.80 0.80 0.75 0.74 0.79 0.81 0.78 0.78 0.79 0.78 0.81 0.84 0.84 0.81 0.90 0.98 0.84 0.83 0.92 0.85 0.81 0.86 0.93 0.96 1.00 1.02 0.99 0.97
1.70 1.75 1.73 1.63 1.50 1.37 1.26 1.18 1.16 1.08 1.02 0.93 0.92 0.80 0.78 0.83 0.80 0.80 0.82 0.86 0.86 0.83 0.81 0.80 0.82 0.83 0.89 0.87 0.88 0.93 0.90 0.82 0.83 0.83 0.83 0.82 0.80 0.78 0.75 0.76 0.78 0.84 0.92
1.72 1.75 1.72 1.63 1.52 1.39 1.31 1.22 1.08 1.05 0.97 0.98 0.81 0.75 0.82 0.82 0.87 0.88 0.84 0.86 0.86 0.85 0.81 0.79 0.84 0.89 0.92 0.91 0.93 0.93 0.86 0.84 0.85 0.85 0.84 0.85 0.81 0.80 0.80 0.75 0.74 0.75 0.75
1.75 1.76 1.73 1.68 1.57 1.42 1.32 1.25 1.13 0.97 0.94 0.88 0.78 0.82 0.85 0.86 0.93 0.90 0.89 0.88 0.87 0.83 0.82 0.81 0.81 0.85 0.87 0.90 0.91 0.86 0.86 0.86 0.86 0.85 0.84 0.83 0.82 0.77 0.71 0.70 0.67 0.66 0.68
1.73 1.77 1.76 1.71 1.58 1.45 1.36 1.23 1.12 0.93 0.96 0.83 0.81 0.86 0.84 0.92 0.94 0.90 0.87 0.89 0.90 0.88 0.86 0.83 0.76 0.78 0.80 0.81 0.85 0.86 0.89 0.87 0.81 0.79 0.79 0.77 0.76 0.77 0.73 0.71 0.70 0.71 0.72
1.74 1.79 1.79 1.72 1.60 1.53 1.45 1.28 1.07 1.02 0.88 0.85 0.84 0.86 0.94 1.00 0.95 0.88 0.89 0.90 0.88 0.91 0.87 0.82 0.78 0.78 0.80 0.86 0.87 0.86 0.86 0.85 0.83 0.82 0.82 0.83 0.80 0.80 0.76 0.74 0.74 0.75 0.76
1.71 1.78 1.81 1.74 1.64 1.64 1.51 1.26 1.14 0.96 0.91 0.85 0.90 0.92 0.98 0.97 0.92 0.87 0.85 0.88 0.88 0.89 0.89 0.85 0.83 0.84 0.87 0.87 0.87 0.86 0.83 0.79 0.78 0.79 0.81 0.84 0.87 0.88 0.84 0.80 0.77 0.77 0.76
1.60 1.74 1.76 1.77 1.71 1.67 1.43 1.21 1.03 0.99 0.85 0.96 1.00 0.99 1.01 0.97 0.90 0.87 0.83 0.81 0.84 0.87 0.88 0.91 0.92 0.89 0.93 0.91 0.90 0.85 0.81 0.79 0.76 0.76 0.80 0.84 0.85 0.88 0.85 0.82 0.81 0.81 0.80
1.62 1.70 1.72 1.77 1.74 1.55 1.30 1.08 1.01 0.88 0.99 1.00 1.01 0.97 0.91 0.89 0.86 0.85 0.85 0.84 0.86 0.89 0.91 0.95 0.99 0.97 0.94 0.93 0.88 0.83 0.82 0.80 0.74 0.75 0.77 0.78 0.79 0.80 0.77 0.75 0.76 0.77 0.78
1.60 1.65 1.62 1.62 1.61 1.49 1.33 1.22 1.06 1.00 0.99 1.04 0.90 0.83 0.83 0.86 0.88 0.87 0.86 0.87 0.87 0.90 0.92 0.95 1.01 0.96 0.91 0.85 0.80 0.79 0.77 0.74 0.68 0.67 0.68 0.73 0.76 0.78 0.68 0.65 0.65 0.65 0.66
1.41 1.47 1.55 1.54 1.48 1.41 1.34 1.16 1.08 1.08 1.00 0.82 0.82 0.83 0.84 0.86 0.87 0.88 0.90 0.91 0.93 0.95 0.98 0.99 0.97 0.92 0.84 0.74 0.71 0.70 0.67 0.63 0.58 0.59 0.58 0.63 0.66 0.76 0.73 0.65 0.64 0.63 0.64
1.34 1.38 1.42 1.46 1.44 1.38 1.35 1.33 1.15 0.91 0.74 0.81 0.82 0.82 0.84 0.87 0.87 0.90 0.93 0.96 0.98 1.01 1.02 0.96 0.88 0.82 0.68 0.64 0.64 0.64 0.61 0.57 0.55 0.58 0.58 0.60 0.60 0.69 0.76 0.72 0.68 0.68 0.67
1.35 1.37 1.50 1.44 1.46 1.38 1.32 1.15 0.83 0.77 0.84 0.86 0.91 0.95 0.94 0.89 0.88 0.92 0.99 0.96 0.99 0.96 0.90 0.87 0.80 0.73 0.66 0.64 0.62 0.59 0.54 0.51 0.50 0.52 0.57 0.58 0.60 0.63 0.71 0.77 0.78 0.72 0.70
1.01 1.03 1.07 1.09 1.13 1.14 1.16 0.97 0.74 0.73 0.80 0.90 0.96 1.02 1.03 1.00 0.97 0.95 0.97 0.97 0.91 0.87 0.83 0.79 0.71 0.69 0.68 0.64 0.58 0.54 0.52 0.49 0.45 0.43 0.46 0.50 0.55 0.59 0.64 0.77 0.79 0.74 0.66
0.98 0.95 0.98 1.01 0.99 0.97 0.87 0.74 0.67 0.76 0.86 0.96 1.05 1.10 1.07 1.02 1.00 0.96 0.91 0.87 0.84 0.84 0.79 0.69 0.65 0.62 0.60 0.58 0.57 0.54 0.49 0.45 0.40 0.42 0.46 0.53 0.56 0.56 0.64 0.74 0.73 0.67 0.65
0.96 0.89 0.95 0.97 1.00 1.02 0.84 0.74 0.77 0.95 1.06 1.12 1.17 1.15 1.11 1.02 0.93 0.89 0.84 0.82 0.80 0.78 0.68 0.64 0.60 0.60 0.59 0.56 0.51 0.48 0.43 0.39 0.38 0.38 0.41 0.48 0.51 0.54 0.58 0.62 0.61 0.61 0.62
0.92 0.95 0.92 0.95 1.10 1.00 0.85 0.84 1.00 1.11 1.21 1.17 1.18 1.14 1.07 0.96 0.90 0.84 0.79 0.76 0.74 0.69 0.63 0.63 0.62 0.61 0.56 0.52 0.48 0.42 0.40 0.40 0.38 0.36 0.37 0.44 0.48 0.51 0.54 0.56 0.59 0.60 0.59
0.88 0.88 0.97 1.04 1.02 0.97 0.92 0.95 1.04 1.17 1.19 1.21 1.15 1.09 1.00 0.94 0.88 0.82 0.76 0.70 0.68 0.63 0.62 0.62 0.61 0.59 0.55 0.50 0.44 0.43 0.41 0.39 0.38 0.38 0.38 0.38 0.43 0.45 0.48 0.51 0.51 0.48 0.44
0.90 0.95 0.96 0.98 0.92 0.91 0.97 1.02 1.13 1.19 1.19 1.17 1.10 1.04 0.95 0.91 0.85 0.77 0.69 0.64 0.64 0.63 0.63 0.62 0.57 0.52 0.44 0.44 0.43 0.42 0.42 0.39 0.38 0.38 0.37 0.37 0.35 0.34 0.33 0.35 0.35 0.37 0.37
0.94 0.95 0.96 0.99 1.02 1.04 1.05 1.08 1.12 1.17 1.15 1.15 1.05 0.99 0.97 0.88 0.79 0.69 0.62 0.63 0.64 0.63 0.62 0.56 0.50 0.47 0.44 0.43 0.42 0.41 0.42 0.42 0.39 0.38 0.37 0.37 0.36 0.34 0.32 0.31 0.30 0.30 0.32
0.91 0.91 0.93 0.96 0.99 1.04 1.01 1.01 1.09 1.09 1.14 1.05 0.98 0.95 0.91 0.82 0.72 0.64 0.63 0.63 0.63 0.59 0.57 0.56 0.52 0.48 0.48 0.50 0.44 0.44 0.44 0.44 0.44 0.42 0.41 0.39 0.37 0.37 0.35 0.33 0.32 0.31 0.29
0.80 0.85 0.89 0.95 0.97 1.04 1.05 1.05 1.10 1.08 1.02 0.98 0.93 0.85 0.83 0.73 0.67 0.65 0.63 0.61 0.60 0.56 0.54 0.53 0.54 0.53 0.54 0.56 0.52 0.47 0.39 0.41 0.44 0.43 0.42 0.42 0.41 0.40 0.38 0.37 0.34 0.32 0.32
0.82 0.82 0.84 0.91 0.99 1.03 1.04 1.04 1.03 1.02 0.98 0.93 0.88 0.77 0.73 0.68 0.67 0.65 0.62 0.59 0.56 0.53 0.51 0.53 0.57 0.59 0.58 0.56 0.56 0.47 0.38 0.35 0.40 0.45 0.42 0.41 0.40 0.40 0.38 0.35 0.33 0.32 0.31
0.92 0.93 0.96 0.96 0.99 1.04 1.07 1.02 0.97 0.92 0.87 0.90 0.91 0.79 0.72 0.70 0.66 0.64 0.64 0.61 0.60 0.59 0.57 0.59 0.65 0.71 0.65 0.56 0.52 0.48 0.46 0.44 0.37 0.34 0.39 0.38 0.39 0.36 0.34 0.33 0.31 0.31 0.32
1.00 0.98 1.02 1.05 1.06 1.08 1.08 1.07 1.02 0.94 0.95 0.94 0.93 0.83 0.73 0.71 0.69 0.69 0.66 0.62 0.62 0.61 0.61 0.69 0.76 0.75 0.66 0.50 0.47 0.44 0.46 0.43 0.40 0.35 0.30 0.32 0.35 0.35 0.35 0.34 0.33 0.35 0.36
1.05 1.03 1.06 1.11 1.09 1.11 1.15 1.15 1.03 0.95 0.93 0.91 0.89 0.87 0.79 0.77 0.76 0.74 0.72 0.69 0.67 0.66 0.73 0.74 0.73 0.61 0.55 0.51 0.45 0.45 0.46 0.38 0.37 0.34 0.31 0.31 0.31 0.33 0.35 0.36 0.37 0.37 0.37
Wind_Speed
19 18 17 16 15 14 13 12 11 9 8 6 5 3 2 2 2 4 4 4 5 6 6 6 6 7 7 7 8 8 7 8 8 8 8 8 7 7 7 7 6 6 6
19 19 18 16 15 15 13 13 13 11 10 7 5 5 4 4 3 4 4 5 5 5 5 6 6 7 7 7 8 8 8 9 9 8 8 8 8 8 7 7 7 7 7
19 19 18 18 16 15 14 13 13 12 11 9 7 7 5 5 4 5 4 4 5 5 6 6 7 7 7 7 8 8 9 10 9 9 9 9 9 8 8 8 8 8 8
19 19 19 19 18 17 16 15 14 13 12 11 9 8 7 6 5 5 5 5 5 5 5 6 6 6 7 7 8 9 10 10 10 10 10 10 9 9 9 9 9 8 8
19 20 20 20 19 18 18 17 15 14 12 12 10 9 9 8 6 6 5 5 4 4 4 5 6 6 7 7 8 9 10 11 11 11 10 10 10 10 10 10 9 9 9
18 20 21 21 20 20 18 17 17 14 15 12 12 11 11 9 8 7 6 4 4 3 4 4 5 7 8 7 8 10 10 11 11 11 11 11 11 11 11 11 11 11 10
16 18 21 21 20 20 19 18 16 15 13 14 13 13 12 11 8 7 5 4 3 3 3 4 5 7 8 8 9 10 11 12 12 12 12 12 12 12 13 13 13 13 13
15 17 18 22 21 23 20 18 16 16 14 14 14 13 12 11 8 7 5 4 2 1 3 4 6 7 9 10 11 11 12 12 13 13 14 14 14 14 14 14 14 14 14
13 15 16 19 25 27 19 19 18 16 15 13 13 13 12 11 9 6 5 3 1 1 3 5 5 8 10 12 12 12 13 13 14 14 15 15 15 16 16 16 16 15 15
12 13 15 19 24 25 19 18 19 16 14 14 13 13 13 10 9 7 4 2 1 3 4 6 7 10 11 12 12 12 13 14 15 16 16 16 17 17 17 17 17 17 17
9 11 14 17 23 23 20 19 19 15 14 14 14 14 13 10 8 6 4 3 3 4 6 7 8 10 10 11 12 13 15 16 17 17 18 18 18 18 18 17 18 17 17
10 10 11 17 21 22 18 17 16 16 16 15 14 13 12 10 7 5 4 3 4 6 6 7 8 9 11 12 14 15 17 18 19 19 20 20 20 20 19 19 19 19 18
8 10 13 16 17 15 19 16 16 16 16 15 15 13 10 8 6 5 4 4 5 5 6 7 9 11 12 14 16 17 18 20 20 21 21 21 21 21 20 20 20 19 19
16 19 21 20 20 20 19 17 16 16 15 14 12 10 8 6 5 4 4 4 4 5 7 9 11 13 15 17 18 20 21 22 23 23 22 22 22 22 22 21 20 20 20
17 17 17 17 17 16 15 14 14 14 13 12 11 8 7 5 5 4 4 5 5 7 9 11 13 15 18 19 21 22 23 24 24 24 24 24 24 23 23 22 21 21 20
17 17 16 16 14 13 12 12 13 13 12 10 9 7 6 5 5 5 5 5 7 8 10 13 15 18 20 22 23 25 25 25 25 25 25 25 24 23 22 23 23 22 22
16 16 15 14 12 11 11 11 12 12 10 9 8 6 6 6 5 5 5 6 8 10 13 15 18 20 22 24 25 26 26 26 26 26 25 24 24 24 24 24 24 24 24
15 15 13 12 11 11 11 11 11 11 10 9 7 7 6 6 6 6 7 8 10 12 15 18 21 23 25 26 27 27 27 27 27 26 25 25 25 25 25 25 26 27 28
14 13 12 11 11 11 10 10 10 10 10 9 8 7 7 7 7 7 8 10 12 15 18 21 23 25 26 27 27 27 27 27 27 26 26 26 27 27 27 28 29 31 32
13 12 11 11 10 10 9 9 10 10 10 8 8 8 8 8 8 9 10 12 15 18 21 23 24 25 26 27 27 27 27 27 28 28 27 28 28 29 31 32 33 35 36
12 13 12 12 11 11 10 10 10 10 9 8 9 10 10 9 10 11 13 15 18 20 22 24 25 26 27 28 28 29 29 29 29 29 29 30 31 32 33 34 36 38 39
12 13 13 13 13 12 12 12 11 12 12 11 11 11 11 11 12 14 15 17 19 22 24 26 27 28 29 29 30 32 30 31 32 32 32 34 35 36 36 38 39 40 41
13 14 14 14 14 14 14 13 13 13 13 13 13 14 14 14 15 16 18 20 22 24 26 27 28 29 31 32 33 31 31 32 35 34 35 37 38 39 40 41 41 42 42
14 15 15 15 16 16 16 16 16 15 15 16 16 17 17 17 18 19 21 23 25 27 28 30 32 33 34 34 34 33 33 34 36 37 37 40 40 42 43 43 43 43 44
16 15 16 17 16 17 18 17 17 17 17 17 18 19 19 20 21 22 24 26 28 29 31 33 34 35 36 36 35 35 35 36 38 38 41 41 43 44 45 44 44 44 45
18 18 18 18 18 18 20 19 19 19 19 19 19 21 22 23 24 25 27 29 30 32 34 35 37 38 36 37 35 36 37 38 39 41 42 44 44 45 44 44 45 45 45
Wind_Direction
212 208 205 206 206 208 210 213 212 213 212 215 214 205 192 146 112 115 103 98 88 80 67 51 40 37 35 34 30 29 22 13 8 7 7 4 0 355 349 343 336 331 326
202 203 206 207 209 210 212 213 209 214 208 206 211 212 186 159 128 124 111 102 88 78 61 49 45 42 42 35 30 26 17 10 5 3 2 1 358 351 344 339 335 328 325
203 203 206 209 209 209 211 209 209 212 208 211 210 197 184 162 140 132 115 104 94 83 70 56 48 46 37 30 21 15 11 8 3 0 356 355 353 349 344 337 330 325 321
207 209 211 212 212 212 213 213 213 210 209 207 201 190 181 165 151 135 125 108 102 84 69 55 47 39 28 16 11 6 3 359 356 352 351 349 347 346 344 340 334 327 322
213 215 214 213 216 216 214 213 211 205 208 199 198 191 180 169 160 146 132 116 104 82 62 48 39 25 12 4 1 359 356 354 351 350 348 344 340 337 336 334 331 329 324
218 218 217 217 217 212 208 208 205 207 197 200 192 184 177 171 161 152 138 121 102 80 61 43 26 14 8 2 357 352 351 349 348 346 343 337 334 330 327 325 320 318 316
220 221 217 215 214 205 202 200 198 192 193 186 183 178 172 167 167 160 146 126 101 75 44 21 10 5 0 352 346 344 341 339 338 336 333 330 327 324 321 318 313 309 307
220 217 223 212 207 197 190 190 188 184 180 181 181 177 177 174 172 161 151 142 121 48 6 356 352 349 346 341 340 334 331 332 332 330 329 326 323 319 317 316 312 308 304
224 218 212 220 197 182 184 187 180 181 183 180 178 181 176 174 171 170 170 168 172 339 338 341 336 337 338 335 335 334 331 329 329 325 323 322 320 317 315 314 311 308 306
223 216 219 205 182 182 192 186 184 184 182 189 182 179 176 175 175 176 187 206 257 308 322 326 327 330 335 336 336 337 336 333 331 327 324 320 318 316 315 313 311 308 304
219 216 213 198 193 190 182 187 187 184 181 177 175 175 179 180 180 193 211 239 277 306 316 322 327 332 337 338 337 334 332 329 327 325 322 318 315 312 311 311 311 309 307
184 179 172 163 180 188 189 180 183 175 171 172 172 177 182 183 192 204 225 253 285 306 315 324 327 331 333 333 331 330 329 327 324 321 319 316 314 311 309 309 308 306 304
172 174 174 168 170 171 181 179 168 168 164 166 168 169 176 187 200 217 241 272 291 304 313 319 325 327 329 328 328 326 325 325 324 321 317 314 312 310 307 306 305 304 303
140 130 130 134 135 140 144 150 155 159 159 160 168 176 185 196 213 232 250 263 288 302 312 318 321 323 324 323 322 321 321 320 320 318 315 313 309 307 303 302 302 302 301
152 147 147 143 142 144 145 145 153 160 160 163 171 180 192 208 220 227 249 273 290 303 311 316 319 320 320 319 319 318 318 317 317 316 314 312 309 306 303 299 298 299 297
152 151 146 145 144 148 151 155 159 161 165 170 176 189 203 217 229 245 262 281 296 304 311 315 317 318 319 318 318 317 317 317 317 315 313 310 308 305 302 299 297 295 294
151 155 155 154 154 157 159 164 168 171 176 181 190 205 219 226 238 250 272 289 299 307 313 315 316 318 317 317 317 316 315 315 315 314 313 310 308 306 303 300 297 296 294
154 157 160 164 165 167 170 172 178 185 189 196 209 217 221 232 245 261 281 295 301 308 313 314 314 314 314 313 313 313 312 313 313 312 311 310 308 305 302 299 297 295 295
168 169 171 172 173 173 176 184 190 194 200 208 212 222 233 243 257 272 287 298 304 308 313 315 315 314 314 313 312 311 311 312 311 310 310 308 307 304 302 299 297 295 294
182 183 183 182 182 184 187 193 197 201 205 214 227 241 243 255 266 278 290 299 304 308 312 314 315 316 316 314 313 311 310 310 309 308 307 307 306 303 301 298 296 294 292
190 193 196 196 198 203 205 204 206 210 219 235 246 248 249 260 271 282 290 300 305 308 310 312 314 316 317 314 312 312 308 307 307 306 305 305 305 304 302 299 296 294 293
197 201 206 210 213 218 219 221 224 230 237 249 252 252 256 266 275 284 292 301 307 308 311 312 313 314 315 315 311 310 308 305 305 304 303 303 302 302 302 300 298 296 293
211 213 217 221 225 227 227 227 233 239 245 251 255 257 265 270 278 285 292 300 305 307 309 311 311 311 312 312 311 307 306 305 305 303 302 302 302 301 301 300 298 296 294
222 224 227 230 231 232 232 233 235 243 251 257 259 261 267 273 279 287 293 298 302 306 308 310 309 310 311 309 310 309 306 305 306 305 304 303 302 302 301 300 298 297 296
230 231 233 235 236 235 232 236 243 250 258 263 263 264 270 274 281 289 293 298 301 302 306 307 308 308 309 310 308 308 306 307 306 304 304 304 304 303 302 300 299 298 298
238 239 240 238 240 240 238 243 250 256 260 262 265 268 270 277 283 288 294 296 299 302 305 306 307 308 307 309 308 308 307 307 307 306 305 305 304 304 303 301 299 299 299